This demonstration page uses our WeatherBlox Daily Observations layout. Learn more.

Left ArrowRight Arrow

Hourly Observations for July 10, 2018

Temp ( °F °C ) Dew Point ( °F °C ) Humidity (%) Winds ( mph kmh ) Pressure ( in mb ) Visibility ( mi km ) Precip ( " mm )
12:51 am 00:51 Mostly Cloudy 82 27.8 57 13.9 42 42 SE 15 24 29.95 1014 10 16.0934 N/A
1:51 am 01:51 Cloudy 76 24.4 61 16.1 60 60 E 20 31 29.97 1015 10 16.0934 N/A
2:51 am 02:51 Mostly Cloudy 76 24.4 60 15.6 58 58 E 14 22 29.98 1015 10 16.0934 N/A
3:51 am 03:51 Cloudy 75 23.9 60 15.6 60 60 ENE 13 20 29.99 1016 10 16.0934 N/A
4:51 am 04:51 Partly Cloudy 75 23.9 60 15.6 60 60 ENE 8 13 29.98 1015 10 16.0934 N/A
5:51 am 05:51 Mostly Cloudy 73 22.8 62 16.7 69 69 ESE 12 19 30 1016 10 16.0934 N/A
6:51 am 06:51 Mostly Cloudy 72 22.2 64 17.8 76 76 ESE 9 15 30.02 1017 10 16.0934 N/A
7:51 am 07:51 Cloudy 75 23.9 62 16.7 64 64 ESE 10 17 30.03 1017 10 16.0934 N/A
8:51 am 08:51 Mostly Cloudy 77 25 62 16.7 60 60 ESE 13 20 30.03 1017 10 16.0934 N/A
9:51 am 09:51 Mostly Cloudy 81 27.2 60 15.6 49 49 E 13 20 30.03 1017 10 16.0934 N/A
10:51 am 10:51 Cloudy with Light Rain 77 25 64 17.8 64 64 E 15 24 30.04 1017 10 16.0934 N/A
11:51 am 11:51 Mostly Cloudy 81 27.2 62 16.7 53 53 ENE 20 31 30.01 1016 10 16.0934 N/A
12:51 pm 12:51 Sunny 80 26.7 62 16.7 54 54 ENE 14 22 29.97 1015 10 16.0934 N/A
1:51 pm 13:51 Sunny 88 31.1 60 15.6 39 39 NE 8 13 29.93 1014 10 16.0934 N/A
2:51 pm 14:51 Sunny 87 30.6 60 15.6 40 40 E 13 20 29.89 1012 10 16.0934 N/A
3:51 pm 15:51 Sunny 86 30 59 15 40 40 SE 5 7 29.88 1012 10 16.0934 N/A
4:51 pm 16:51 Sunny 86 30 60 15.6 42 42 VRB 5 7 29.86 1011 10 16.0934 N/A
5:51 pm 17:51 Sunny 86 30 57 13.9 37 37 N N/A 29.84 1010 10 16.0934 N/A
6:51 pm 18:51 Sunny 86 30 57 13.9 37 37 N N/A 29.84 1010 10 16.0934 N/A
7:51 pm 19:51 Clear 84 28.9 60 15.6 44 44 WNW 5 7 29.86 1011 10 16.0934 N/A
8:51 pm 20:51 Mostly Cloudy 83 28.3 62 16.7 49 49 NW 8 13 29.88 1012 10 16.0934 N/A
9:51 pm 21:51 Clear 81 27.2 62 16.7 53 53 WNW 6 9 29.88 1012 10 16.0934 N/A
10:51 pm 22:51 Clear 78 25.6 64 17.8 62 62 WNW 8 13 29.9 1012 10 16.0934 N/A
11:51 pm 23:51 Cloudy 77 25 62 16.7 60 60 WNW 7 11 29.9 1012 10 16.0934 N/A

Powered by AerisWeather